Theta_e
308 309 308 309 309 310 310 310 309 309 309 309 309 309 309 309 309 309 309 311 311 313 314 314 313 314 316 317 317 316 312 313 314 313 316 315 315 316 317 317 318 320 321 321 329
309 309 308 309 309 310 310 309 309 309 309 309 309 309 309 309 309 309 310 310 311 311 314 314 313 315 316 315 315 312 311 312 311 312 314 315 316 316 317 317 318 319 321 322 325
315 308 308 309 309 309 309 309 309 309 309 308 308 308 308 308 308 310 310 311 312 311 314 313 312 315 315 314 314 312 311 311 312 313 315 315 315 315 315 314 317 317 320 323 322
315 308 308 308 308 308 308 309 309 309 309 308 308 308 308 308 308 313 310 311 312 311 313 313 313 314 313 312 314 312 312 312 313 313 315 314 315 314 315 316 317 317 317 321 322
315 309 307 308 308 308 308 308 308 308 308 308 308 308 308 308 309 312 314 311 311 311 312 313 314 313 311 312 313 311 311 312 313 313 313 314 313 313 314 316 316 317 318 319 320
311 310 307 307 307 307 308 308 308 308 308 308 308 307 308 309 309 311 312 313 310 311 312 313 314 313 313 312 312 312 312 312 312 312 312 312 311 313 312 314 315 316 317 319 320
307 307 307 307 307 307 307 307 308 307 307 307 307 307 308 309 310 311 311 311 311 311 312 312 313 313 313 312 313 312 312 311 312 312 312 313 310 310 312 313 313 314 316 318 318
308 307 307 308 307 307 307 307 307 307 307 307 307 308 308 308 309 311 310 311 311 311 310 312 313 313 313 313 312 310 307 309 309 311 312 310 307 308 313 312 312 313 314 316 318
308 307 307 308 307 307 307 307 307 307 307 307 308 308 308 309 309 310 310 311 311 312 312 313 313 314 312 309 309 308 307 309 309 310 311 310 309 309 313 313 313 313 313 314 315
308 308 308 307 307 307 307 307 307 307 308 309 310 309 309 310 310 311 310 310 311 313 313 313 313 308 305 306 308 310 309 309 309 310 311 311 309 308 312 311 312 313 313 314 315
307 307 307 307 307 307 307 308 309 310 310 309 311 309 310 310 311 311 310 311 311 312 310 311 309 309 308 307 307 307 309 310 309 310 312 309 309 308 311 311 311 313 313 313 313
310 308 307 307 307 307 307 308 308 309 311 308 312 311 311 311 312 311 311 311 311 308 309 309 308 307 307 307 308 308 309 310 309 310 310 310 308 307 308 310 312 312 312 312 313
317 312 308 307 307 307 308 308 309 311 311 309 310 313 312 312 311 311 311 311 308 307 308 308 309 307 308 307 308 308 308 309 310 309 307 308 306 305 306 308 311 312 311 311 312
317 317 311 308 309 308 309 309 313 316 309 312 312 314 312 312 312 311 312 312 309 307 307 308 308 307 309 308 307 308 307 308 309 308 308 307 305 306 307 305 306 310 312 311 314
316 316 315 309 310 311 309 314 317 314 309 309 313 311 311 312 311 311 311 312 308 307 308 308 308 308 309 309 308 309 308 308 308 306 310 308 307 305 305 308 307 310 312 313 314
316 317 312 312 310 308 309 313 315 312 307 314 314 312 311 311 312 311 311 312 310 309 308 307 310 308 307 307 308 307 307 306 306 304 307 306 305 304 306 309 311 311 312 313 314
316 316 313 313 311 311 309 313 312 313 309 316 314 310 311 311 311 310 310 311 310 310 310 311 311 310 309 309 309 306 306 308 308 308 308 306 306 305 306 309 311 311 312 313 313
313 316 315 312 311 311 310 313 315 310 310 314 314 311 312 311 312 310 310 311 309 307 308 310 311 309 308 308 309 306 307 308 307 309 307 308 309 308 309 309 311 312 312 312 312
309 311 313 312 311 311 312 314 313 310 311 315 315 313 313 312 311 310 310 310 310 307 310 310 309 309 308 308 309 308 307 306 307 297 307 309 309 311 310 309 309 311 311 310 311
309 308 308 310 311 312 311 312 311 311 314 314 317 314 314 313 313 311 310 309 309 307 308 310 311 310 310 310 310 308 308 311 307 307 309 307 309 310 312 310 308 308 309 309 310
308 307 307 308 308 312 312 312 310 310 313 315 315 315 314 314 312 312 311 310 309 308 309 308 310 311 310 310 309 310 310 310 310 308 309 308 308 305 310 309 308 308 308 309 310
305 306 307 305 304 301 306 308 310 312 311 310 310 313 314 313 312 311 311 309 310 309 311 310 308 309 309 309 311 311 309 309 309 309 309 308 308 309 308 309 309 307 309 309 309
303 304 306 307 308 306 302 307 310 311 311 311 311 311 310 314 315 311 310 312 312 309 310 310 309 307 309 311 311 313 311 310 309 307 309 308 309 308 308 308 308 309 307 306 306
301 303 304 306 307 307 306 307 308 309 311 310 311 311 311 312 311 314 314 313 314 313 313 312 310 312 312 311 312 314 312 310 311 309 310 309 311 309 307 307 307 306 305 305 305
299 298 301 306 306 307 308 307 308 309 310 309 310 310 311 312 312 314 312 314 312 313 312 312 312 310 312 311 311 310 311 312 312 311 312 311 313 311 309 307 307 304 304 303 303
299 297 299 299 306 308 308 308 308 308 309 310 310 310 310 310 312 313 312 311 315 311 312 309 312 312 313 312 311 311 310 312 312 312 313 311 314 310 309 307 305 303 302 301 301
298 298 298 298 303 306 307 307 308 307 306 309 309 310 311 311 310 310 310 311 311 312 311 310 310 313 316 311 312 316 312 311 312 311 312 315 312 307 305 304 302 301 301 301 301
Wind_Speed
26 25 26 26 24 23 21 19 18 16 16 13 12 12 11 11 12 13 14 10 11 9 12 11 9 8 7 4 2 2 4 2 6 6 4 11 4 8 4 11 7 9 4 3 22
27 27 27 26 26 24 21 18 17 15 14 13 12 11 10 10 11 15 11 12 13 10 14 12 13 11 5 4 2 3 4 8 3 3 4 8 6 11 6 7 5 9 8 11 24
23 27 27 26 25 25 23 20 17 16 14 13 12 10 10 8 7 10 15 12 12 13 14 13 12 10 4 5 3 2 4 5 3 2 6 7 5 5 9 3 10 16 14 20 26
24 27 27 27 24 24 24 22 19 17 15 13 11 9 8 7 5 4 13 15 14 15 16 15 13 7 4 5 4 2 2 6 5 3 4 6 4 3 11 5 9 14 14 22 27
23 26 27 27 25 24 22 21 20 18 16 13 12 9 8 7 7 4 9 17 15 17 17 14 14 6 6 6 5 3 4 4 5 3 3 5 4 5 11 13 7 7 18 20 25
23 26 27 26 25 24 22 20 19 17 16 14 12 11 9 5 7 7 6 14 16 17 15 15 10 5 6 4 5 6 4 3 3 2 1 3 2 1 1 14 13 11 16 19 22
22 24 27 27 25 23 22 20 19 17 15 15 13 12 11 12 6 9 7 11 14 16 16 15 8 7 8 5 6 7 4 3 3 3 1 2 3 8 7 4 11 16 16 20 21
21 24 25 26 26 23 20 19 18 17 16 14 13 12 7 13 11 10 11 11 13 14 14 13 8 6 3 11 5 4 5 2 2 5 1 3 8 4 3 10 11 9 16 20 23
27 25 25 25 24 22 20 18 17 17 15 13 13 10 5 10 17 10 12 12 14 13 12 12 9 4 6 6 4 5 3 4 5 7 2 2 6 3 4 5 2 7 12 17 21
27 27 26 25 25 22 21 19 17 15 13 11 9 7 10 10 18 18 14 11 11 13 10 8 3 4 3 3 6 5 3 3 4 4 3 2 9 8 9 11 12 12 16 17 21
27 27 27 27 25 25 25 22 12 7 21 8 9 4 4 15 15 18 17 17 11 12 4 3 3 8 8 8 4 6 4 4 3 2 3 6 7 11 18 18 20 22 23 24 26
28 27 26 25 25 25 26 20 19 5 6 18 6 17 6 15 9 19 21 11 8 5 5 3 6 7 4 4 4 5 5 3 1 2 3 1 9 10 14 18 27 27 27 22 19
29 27 26 26 25 27 31 27 19 8 4 10 22 11 10 17 8 24 25 12 6 6 6 7 4 8 7 4 5 3 5 4 3 2 3 3 7 6 6 10 15 12 14 16 12
32 30 27 28 26 30 32 26 17 9 3 4 10 8 13 12 4 16 26 11 3 9 8 4 1 7 4 5 6 5 6 4 5 4 3 2 5 6 4 9 6 12 8 1 2
31 32 32 35 24 32 31 25 15 11 2 5 8 11 17 12 14 12 24 8 9 8 8 7 8 6 5 6 6 4 4 5 3 4 2 2 1 7 3 6 5 7 12 10 10
33 35 41 34 28 30 22 23 12 4 8 4 6 8 7 6 4 8 11 7 7 5 3 5 1 5 8 3 4 8 7 7 5 3 2 6 6 5 4 2 2 4 8 10 12
31 36 47 40 31 23 28 26 3 9 2 7 6 6 11 6 4 5 9 7 7 6 4 2 2 1 4 7 4 4 6 2 2 2 5 1 2 7 5 4 2 6 9 12 14
16 37 46 42 31 27 34 10 6 7 8 3 5 9 9 6 2 5 10 11 9 3 4 8 5 8 4 6 9 6 8 6 7 4 3 3 6 5 4 6 14 16 17 18 18
8 17 36 33 35 34 30 11 11 7 9 8 5 10 6 5 6 5 10 16 15 10 7 6 5 1 2 4 10 6 6 5 7 3 3 4 5 3 4 4 9 15 17 18 17
12 14 5 15 40 33 16 14 7 1 6 5 9 7 9 9 5 7 9 7 6 9 2 7 3 0 2 4 2 6 9 4 2 4 4 4 4 5 6 7 5 7 15 16 17
12 8 9 11 9 25 7 9 3 3 2 5 6 5 6 8 8 9 11 4 13 9 7 6 4 1 5 7 9 3 3 2 5 5 6 3 6 5 10 8 9 11 13 15 17
7 2 13 15 2 2 3 6 6 7 3 3 3 4 6 9 7 8 12 7 16 16 16 7 6 5 8 2 1 1 8 8 6 5 3 3 6 3 10 10 13 13 16 16 16
4 4 19 14 3 2 2 1 5 5 5 3 3 1 1 4 5 6 6 3 7 12 13 9 4 3 5 3 1 4 4 4 5 3 8 6 6 3 7 10 15 22 16 16 15
4 2 4 6 7 6 4 4 4 5 5 5 4 5 3 3 1 3 4 1 3 6 6 17 3 12 16 8 8 7 8 7 8 4 7 8 7 6 7 8 13 16 16 15 13
4 3 2 4 5 6 9 7 4 4 5 14 6 5 5 5 5 5 2 3 2 4 4 6 8 4 2 3 3 7 10 14 14 18 10 13 16 20 15 12 20 21 17 14 11
4 2 2 1 9 10 11 10 11 4 7 8 4 12 11 6 4 6 7 2 5 3 4 1 4 3 1 3 4 4 8 19 24 18 4 6 2 10 18 22 22 19 15 13 10
11 4 1 0 2 7 5 8 10 9 3 10 12 8 9 11 9 4 3 6 2 3 4 6 7 5 10 8 5 8 18 14 11 5 16 13 7 11 11 16 21 19 15 12 9
Wind_Direction
199 199 194 192 194 194 197 203 201 199 204 211 213 218 215 218 228 222 223 208 214 194 191 183 179 188 187 172 137 131 65 151 165 150 198 158 145 163 200 154 177 193 200 180 179
199 199 195 195 192 195 193 199 206 201 205 207 212 217 225 226 236 235 212 206 203 197 189 176 181 174 177 172 173 89 108 202 183 188 184 167 166 157 170 161 187 194 188 167 180
205 197 197 198 196 193 194 194 203 207 205 207 211 209 219 222 253 243 215 202 196 190 183 177 181 166 165 149 184 151 166 184 174 164 153 155 151 173 155 241 210 205 190 173 181
211 199 198 195 200 197 194 195 197 206 210 209 210 210 217 207 195 253 205 199 200 190 186 175 174 172 135 145 161 112 157 156 159 144 143 158 160 213 196 208 217 227 209 185 187
212 201 198 198 197 200 201 195 200 199 206 209 206 205 205 211 239 290 202 198 198 190 188 181 182 167 152 155 138 136 186 155 155 179 158 169 184 231 243 224 204 197 203 199 199
208 203 194 197 197 200 197 201 199 203 199 205 206 202 208 220 237 234 206 197 198 191 188 192 198 185 129 161 148 169 150 164 165 199 220 191 204 228 283 227 220 212 209 211 214
205 206 198 190 193 199 196 195 198 204 198 198 200 200 213 223 227 215 207 190 196 194 193 193 196 188 156 123 128 121 104 351 228 207 231 244 276 233 230 276 216 218 215 219 225
202 199 201 194 190 194 196 195 194 199 197 197 197 199 233 227 222 212 198 189 191 194 194 191 177 171 139 127 56 78 63 121 296 155 178 138 265 287 283 218 219 207 223 224 228
201 196 197 195 194 188 191 192 194 196 193 189 188 183 231 218 206 200 190 188 186 186 187 186 175 139 129 97 42 16 179 195 315 200 126 162 267 262 125 91 173 224 236 238 240
192 194 194 197 189 184 185 186 186 188 184 177 187 180 226 213 199 195 187 180 172 175 157 171 156 94 54 111 195 173 196 214 215 205 132 191 262 279 259 294 289 269 254 248 247
191 191 195 192 192 180 180 168 161 173 183 188 206 189 209 182 186 188 183 169 165 165 148 133 136 199 190 187 148 130 153 183 199 153 139 218 274 273 281 286 271 268 264 262 259
192 192 191 193 193 182 184 178 184 180 169 207 218 221 181 168 159 180 176 162 151 159 124 68 232 220 136 117 124 135 154 216 359 120 136 81 272 268 273 265 267 274 276 279 281
194 194 192 189 191 192 191 188 184 163 132 203 220 202 195 185 185 186 180 165 136 140 169 164 229 156 143 143 152 182 171 198 187 77 43 360 290 301 291 260 276 272 289 285 284
199 196 191 190 193 194 200 182 183 180 79 220 191 226 197 184 226 189 182 165 151 171 140 216 172 141 149 186 139 193 196 168 138 99 224 18 275 296 280 300 296 338 347 140 139
206 204 191 200 190 195 200 172 161 158 178 204 171 190 185 181 142 180 178 179 156 158 132 228 167 149 169 196 154 203 122 126 89 104 69 322 12 273 326 286 300 21 72 85 76
202 202 194 201 199 207 187 172 165 90 235 166 141 158 140 171 149 127 166 153 142 112 54 177 174 164 186 83 128 155 82 54 60 84 295 203 167 268 222 239 89 41 58 61 66
199 203 197 200 191 187 171 165 128 201 211 181 185 171 163 159 127 143 161 167 160 121 168 77 208 200 144 92 48 91 88 17 348 1 229 55 125 246 278 306 31 91 73 80 74
157 184 185 189 189 182 175 151 203 192 207 122 133 139 188 144 181 155 142 190 236 124 128 158 224 164 187 173 158 181 159 164 194 195 243 95 226 249 319 78 102 98 86 87 78
190 120 171 187 185 180 175 199 205 173 162 142 89 158 186 214 136 139 191 200 196 182 153 152 234 358 152 147 148 193 204 152 103 17 67 213 271 336 40 55 101 91 85 78 76
157 198 158 137 195 184 184 206 207 202 118 160 164 175 175 181 142 171 168 195 206 179 175 196 133 333 143 110 14 168 150 81 6 137 231 254 266 211 184 184 162 107 91 87 87
159 138 213 194 147 189 205 207 169 210 138 155 168 141 167 171 172 195 203 221 192 180 151 144 113 352 130 215 163 135 176 176 139 166 182 174 249 214 178 176 154 129 105 98 91
169 150 167 191 94 145 188 172 179 154 126 122 91 106 161 159 167 198 205 214 192 156 193 177 132 167 200 257 319 280 194 165 175 216 234 162 254 184 159 162 143 126 118 106 97
180 118 168 177 166 170 153 164 197 155 151 132 106 53 85 143 174 184 182 193 179 170 179 173 195 85 357 340 349 216 191 135 102 85 204 143 244 111 111 122 137 134 127 117 110
175 135 204 202 181 145 146 159 193 162 112 111 107 104 106 141 11 146 197 151 168 180 174 166 147 206 217 220 138 201 192 192 185 182 213 221 147 196 180 158 149 141 136 129 119
213 219 215 186 213 155 157 174 173 144 159 158 170 169 143 163 161 202 162 131 54 164 98 161 206 180 81 95 182 179 179 180 202 216 195 221 189 186 178 173 167 154 148 141 129
188 184 145 285 156 156 167 191 186 181 158 182 164 185 176 184 182 179 167 209 191 169 133 130 154 140 127 130 178 231 216 199 213 213 213 103 169 165 155 156 155 160 156 145 129
218 217 203 208 196 178 204 179 188 152 222 185 171 168 185 204 185 129 151 181 237 137 146 146 139 155 224 152 96 269 220 201 205 183 204 210 166 146 142 152 156 161 161 146 131